Showing default

BEIDOU 3M19, 44864

Orbit data source: Space-Track

BEIDOU 3M19, 44864 is a payload satellite owned by CNSA (CN) in MEO that was launched on Mon, 16 Dec 2019 UTC via a CHANG ZHENG 3B/YZ-1 launch vehicle from the Xichang Space Center, China (XSC). Payload-class satellites include a variety of spacecraft equipped with specific instruments for various scientific and technological missions. These include communications satellites like Starlink; space stations such as the ISS; scientific satellites like the Hubble; Earth observation satellites from companies like Planet Labs, Umbra, and HawkEye 360; GPS; miniature CubeSats for education and research; and military/defense satellites.

Loading next visibility...
Identifier
44864, 2019-090A
Orbit
MEO
Country
Flag of CNCN / PRC
Related business
Manufacturer
CAST
Mission
Operational Defense Navigation
Bus & Motor
BD-3M, Unknown motor
Mass
1,014 kg wet, ~850 kg dry
Launch date (UTC)
2019-12-16 (6 years ago)
Launch vehicle
CHANG ZHENG 3B/YZ-1
Launch site
Xichang Space Center, China (XSC)
Object type
Payload
Rocket body
Debris
Shape & HBR
Box + 2 Pan, Unknown HBR
Radar Cross Section
8.984 m², Large (>1 m²)

Expand to show TLE details & history
Last TLE update: 1 week ago

TLE from 1 week ago
0 BEIDOU 3M19
1 44864U 19090A   25252.63294242  .00000009  00000-0  00000-0 0  9992
2 44864  56.3101  72.0806 0015411 288.3631  68.3116  1.86231390 39000
Epoch: 2025-09-09T15:11Z
TLE epoch observation values (Epoch: 2025-09-09T15:11:26.225Z)
Latitude
-2.67265°
Longitude
-146.49051°
Altitude
21,512.82 km
Speed
3.782 km/s
True Right ascension
04h 41m 09s
True Declination
-2° 40' 07"
Sunlit
Object was in daylight at epoch
Visualization orbit readout
Latitude
Unknown
Longitude
Unknown
Altitude
Unknown
Speed
Unknown
Apparent Right ascension
Unknown
Apparent Declination
Unknown
Sunlit
N/A
Visualization observer readout
Local Sidereal Time
04:35:14
Azimuth
Unknown
Elevation
Unknown
Doppler factor
Unknown
Orbital elements
Apogee altitude
21,570.975 km
Perigee altitude
21,484.963 km
Semi-major axis
27,906.106 km
Eccentricity
0.00154
Inclination
56.3101°
RAAN
72.0806°
Arg. of periapsis
288.3631°
True anomaly
68.47581°
Mean anomaly
68.3116°
Eccentric anomaly
68.39369°
Mean motion
0.46558 °/min
Orbital period
773.23 mins
BSTAR
0
Loading maneuver chart data...
Computing Atmospheric mass density...
Loading historical data...
Loading historical data...
Loading historical data...
Loading historical data...
Loading historical data...
Loading historical data...
Loading historical data...
Other satellites on launch #90 in the year 2019 (2019-12-16 UTC)

Documentation

Showing up to 5 results
|